THOR AGENA B DEB, 2092

Orbit data source: Space-Track

THOR AGENA B DEB, 2092 is space debris in LEO originally from a launch on Mon, 29 Nov 1965 UTC launched from the Air Force Western Test Range (AFWTR). Debris objects in space refer to the collection of defunct objects orbiting the Earth. Examples of debris include non-operational satellites, rocket bodies, and fragments generated from explosions, collisions, or faulty payload assembly.

Loading next visibility...
Identifier
2092, 1965-098H
Orbit
LEO
Last TLE update
21 hours ago
Origin
Manufacturer
Unknown
Mission
Spacecraft
Bus & Motor
Unknown
Mass
~1 kg wet, ~1 kg dry
Launch date (UTC)
1965-11-29 (60 years ago)
Launch vehicle
Unknown
Launch site
Air Force Western Test Range (AFWTR)
Object type
Payload
Rocket body
Debris
Shape & HBR
Ann Cyl, 0.2 m
Radar Cross Section
0.031 m², Small (<0.1 m²)

Expand to show TLE details & history

TLE from 21 hours ago
0 THOR AGENA B DEB
1 02092U 65098H   25166.85594220  .00001871  00000-0  60524-3 0  9993
2 02092  79.8637 313.7515 1301105 138.6859 232.0417 12.34215233635213
Epoch: 2025-06-15T20:32Z
TLE epoch observation values (Epoch: 2025-06-15T20:32:33.406Z)
Latitude
-0.00003°
Longitude
101.23726°
Altitude
2,240.85 km
Speed
6.491 km/s
True Right ascension
20h 55m 00s
True Declination
0° 00' 00"
Sunlit
Object was in daylight at epoch
Visualization orbit readout
Latitude
9.43105°
Longitude
102.1682°
Altitude
2,063.524 km
Speed
6.639 km/s
Apparent Right ascension
19h 26m 55s
Apparent Declination
-13° 22' 13"
Sunlit
Object is in daylight
Visualization observer readout
Local Sidereal Time
04:40:50
Azimuth
294.213° NW
Elevation
-44.995°
Doppler factor
1
Orbital elements
Apogee altitude
2,557.39 km
Perigee altitude
499.882 km
Semi-major axis
7,906.773 km
Eccentricity
0.13011
Inclination
79.8637°
RAAN
313.7515°
Arg. of periapsis
138.6859°
True anomaly
Unknown
Mean anomaly
232.0417°
Eccentric anomaly
Unknown
Mean motion
3.08705 °/min
Orbital period
116.62 mins
BSTAR
0.00060524
Loading maneuver chart data...
Loading SW <> Apogee altitude chart data...
Loading historical data...
Loading historical data...
Loading historical data...
Loading historical data...
Loading historical data...
Loading historical data...
Loading historical data...

THOR AGENA B DEB Visibility forecast

Observer location: undefined°, undefined°

Span
Click to sort rows by Start time (UTC) header in descending order
Start Az.
Max El. time (UTC)
Max El. Az.
Max El.
End time (UTC)
End Az.
15 mins2025-06-17 09:35:16.998Z159.24° S2025-06-17 09:44:16.998Z95.996° ESE34.404°2025-06-17 09:50:16.998Z31.262° NE
14 mins2025-06-17 11:34:16.998Z222.448° SW2025-06-17 11:42:16.998Z284.486° WNW32.647°2025-06-17 11:48:16.998Z350.277° N
|